Location: Fornova de Taro
(44.7000°N, 10.1000°E)
Time: 02:22:35
(UTC+00:00)

Cosmos 2219 Rocket - Pass Details

Date: 26 May 2022
Orbit: 827 x 847 km, 71.0° (Epoch: 26 June)

Event Time Altitude Azimuth Distance (km) Brightness Sun altitude
Exits shadow 00:43:10 11° 268° (W) 2,330 4.3 -21.3°
Maximum altitude 00:46:53 21° 313° (NW) 1,805 4.1 -21.1°
Drops below altitude 10° 00:51:01 10° 1° (N) 2,445 5.6 -20.8°
Sets 00:54:07 0° 18° (NNE) 3,385 6.9 -20.5°
